STARLINK-34559, 64706

Orbit data source: Space-Track

STARLINK-34559, 64706 is a payload satellite owned by SpaceX/Seattle (US) in LEO that was launched on Sat, 28 Jun 2025 UTC via an FALCON 9 launch vehicle from the Air Force Western Test Range (AFWTR). Payload-class satellites include a variety of spacecraft equipped with specific instruments for various scientific and technological missions. These include communications satellites like Starlink; space stations such as the ISS; scientific satellites like the Hubble; Earth observation satellites from companies like Planet Labs, Umbra, and HawkEye 360; GPS; miniature CubeSats for education and research; and military/defense satellites.

Not visible in the next 10 days
Identifier
64706, 2025-142L
Orbit
LEO
Last TLE update
8 hours ago
Origin
Manufacturer
SpaceX/Seattle
Mission
Operational spacecraft
Bus & Motor
STARLINK V2MO, Unknown motor
Mass
575 kg wet, ~530 kg dry
Launch date (UTC)
2025-06-28 (1 week ago)
Launch vehicle
FALCON 9
Launch site
Air Force Western Test Range (AFWTR)
Object type
Payload
Rocket body
Debris
Shape & HBR
Unknown
Radar Cross Section
RCS unknown

Expand to show TLE details & history

TLE from 8 hours ago
0 STARLINK-34559
1 64706U 25142L   25186.58335648 -.01148165  00000-0 -46739-2 0  9990
2 64706  69.9952 231.3279 0003986 277.1602  56.6895 15.88509831  2136
Epoch: 2025-07-05T14:00Z
TLE epoch observation values (Epoch: 2025-07-05T14:00:01.999Z)
Latitude
-24.67093°
Longitude
87.92846°
Altitude
313.758 km
Speed
7.72 km/s
True Right ascension
14h 47m 01s
True Declination
-24° 31' 56"
Sunlit
Object was in full shadow at epoch
Visualization orbit readout
Latitude
38.56184°
Longitude
-100.26598°
Altitude
315.695 km
Speed
7.722 km/s
Apparent Right ascension
00h 17m 15s
Apparent Declination
0° 31' 34"
Sunlit
Object is in daylight
Visualization observer readout
Local Sidereal Time
10:11:13
Azimuth
316.672° NNW
Elevation
-40.388°
Doppler factor
1
Orbital elements
Apogee altitude
306.991 km
Perigee altitude
301.663 km
Semi-major axis
6,682.464 km
Eccentricity
0.0004
Inclination
69.9952°
RAAN
231.3279°
Arg. of periapsis
277.1602°
True anomaly
Unknown
Mean anomaly
56.6895°
Eccentric anomaly
Unknown
Mean motion
3.97318 °/min
Orbital period
90.61 mins
BSTAR
-0.0046739
Loading maneuver chart data...
Loading SW <> Apogee altitude chart data...
Loading historical data...
Loading historical data...
Loading historical data...
Loading historical data...
Loading historical data...
Loading historical data...
Loading historical data...

STARLINK-34559 Visibility

Observer location: undefined°, undefined°

STARLINK-34559 is likely not visible in the next few days
Span
Click to sort rows by Start time (UTC) header in descending order
Start Az.
Max El. time (UTC)
Max El. Az.
Max El.
End time (UTC)
End Az.
|